Location: Borovka
(49.7741°N, 14.5280°E)
Time: 07:43:32
(UTC+00:00)

Cosmos 1656 Rocket - Pass Details

Date: 17 November 2025
Orbit: 791 x 846 km, 71.1° (Epoch: 13 December)

Event Time Altitude Azimuth Distance (km) Brightness Sun altitude
Rises 18:22:28 0° 209° (SSW) 3,332 7.1 -29.8°
Reaches altitude 10° 18:24:52 10° 210° (SSW) 2,412 6.3 -30.2°
Enters shadow 18:28:35 45° 215° (SW) 1,122 4.4 -30.8°
